Temp
7 7 7 7 8 8 7 8 7 7 7 7 7 7 7 7 7 7 7 7 8 8 8 8 8 8 8 8 8 9 11 12 13 16 17 20 21 20 20 20 20 20 19 21 21 22 23 23 24 23 24 25 25 26 25 25 26 26 26 25 24 25 26 27 28 28 27 28 28 28 28 27 27 28 27 27 28 29 28 28 27 27 27 27 27 26 24 22
7 7 7 7 7 7 7 7 7 7 7 7 7 7 7 7 7 7 7 8 8 8 8 8 8 8 8 8 8 9 11 12 14 18 19 20 20 20 20 20 20 20 20 22 22 23 24 24 24 24 24 25 25 25 25 25 25 25 26 25 25 27 28 28 28 27 28 27 28 28 28 27 27 27 27 27 28 28 28 27 26 26 26 26 26 24 23 22
7 7 7 7 7 8 8 8 8 8 7 8 8 7 7 7 7 7 7 8 8 8 8 8 8 8 8 9 9 10 11 13 17 20 21 20 20 20 20 20 20 20 21 22 23 24 24 24 24 24 25 25 25 25 25 25 25 26 26 25 26 28 27 27 27 27 27 27 27 27 28 28 27 27 27 27 28 28 28 28 27 26 25 25 25 23 22 22
7 7 7 7 8 8 8 8 8 8 8 8 8 8 8 7 7 7 7 7 8 8 8 8 8 8 8 9 10 10 11 16 21 22 21 20 20 20 20 20 20 20 21 22 22 23 23 24 24 24 25 25 25 25 25 25 25 26 25 25 27 27 26 27 27 27 27 27 27 27 27 28 27 27 27 27 28 28 29 29 28 27 26 25 24 23 23 22
7 7 7 8 8 8 8 8 8 8 8 8 8 8 8 8 8 8 8 7 8 8 8 8 8 9 9 11 12 10 13 19 22 22 21 20 20 20 20 20 20 20 21 22 22 23 23 24 24 24 24 25 25 25 25 25 25 25 25 26 27 27 26 27 28 27 27 27 27 27 27 27 27 27 27 27 28 28 29 29 28 28 26 25 24 23 23 23
7 7 7 7 8 8 8 8 8 8 8 8 8 8 8 8 8 8 8 8 8 8 8 8 8 9 11 12 12 11 16 21 22 21 20 21 21 20 20 20 20 20 21 22 23 23 24 24 24 24 25 25 25 25 25 25 25 25 26 27 26 27 26 27 27 27 27 26 27 27 27 27 27 27 27 27 28 28 28 28 27 27 26 25 24 23 22 22
7 7 7 7 7 8 8 8 8 8 8 8 8 8 8 8 8 8 8 8 8 8 8 8 9 10 12 13 12 14 19 23 22 21 20 21 21 20 20 20 20 21 22 23 23 24 24 24 24 24 25 25 25 25 25 25 25 25 26 26 26 26 26 27 27 27 27 26 27 27 27 27 27 27 27 27 28 27 27 28 27 26 26 25 23 22 22 23
7 7 7 7 7 8 8 8 8 8 8 8 8 8 8 8 8 8 8 8 8 9 9 9 10 11 12 12 14 19 22 22 21 20 20 20 20 20 20 20 20 21 22 24 24 24 24 24 25 25 25 25 25 25 25 25 25 25 25 26 26 26 27 27 27 27 27 27 27 27 26 27 27 27 27 27 27 27 27 27 26 25 24 23 22 22 23 22
7 7 7 7 8 9 10 9 8 8 8 8 8 8 8 8 8 8 8 7 8 9 10 11 12 12 12 12 17 22 22 21 20 20 20 20 20 20 20 20 21 22 23 23 24 24 24 24 24 24 25 25 24 25 25 24 25 25 26 26 26 26 27 27 27 27 27 27 27 27 27 27 27 27 27 27 27 26 27 26 26 25 23 23 22 22 22 21
7 8 9 10 11 12 12 12 10 8 8 8 8 8 8 8 8 7 7 8 8 10 11 13 14 13 12 13 18 22 21 20 20 20 20 19 20 20 20 21 21 22 23 23 23 24 24 24 24 25 25 25 24 25 25 25 25 26 26 26 26 27 27 26 26 26 27 26 26 27 27 27 26 26 27 27 26 26 26 26 26 25 24 23 23 22 22 22
8 11 13 13 13 14 13 13 12 11 10 9 8 8 8 8 8 8 9 10 11 12 13 14 14 13 12 15 20 22 21 20 20 20 20 19 20 20 21 22 22 23 23 23 24 24 24 25 25 25 25 25 24 25 25 25 25 25 25 26 26 27 27 26 26 26 27 27 26 28 28 27 27 27 27 27 26 26 27 26 26 25 24 24 23 22 22 23
8 12 15 14 14 14 14 14 14 13 12 10 10 9 9 8 8 10 12 13 13 14 14 14 14 12 12 17 22 22 20 20 20 20 20 20 20 21 21 21 22 23 23 24 24 24 23 24 24 24 24 24 25 25 25 25 25 25 25 25 26 27 26 26 27 26 27 27 26 28 27 27 28 27 27 26 26 26 27 27 26 26 25 24 23 23 23 23
9 13 15 15 15 15 15 15 14 14 13 13 12 11 11 10 10 12 13 13 14 14 14 14 13 10 13 20 22 21 20 20 20 20 19 20 20 20 20 21 21 22 22 24 24 23 23 23 23 24 24 24 25 25 25 25 25 25 26 25 26 27 26 27 27 27 28 26 26 27 24 26 29 28 26 25 25 26 26 27 27 26 25 24 24 23 23 23
10 13 15 15 15 15 15 15 15 15 14 14 13 13 12 12 12 12 13 13 14 14 14 14 11 10 15 21 22 20 20 19 19 20 20 20 21 21 20 20 21 21 22 22 22 22 22 22 23 24 24 24 25 25 25 25 25 26 26 26 26 25 24 27 27 27 28 26 27 27 23 25 29 27 26 25 25 26 27 27 27 26 25 25 24 24 24 23
11 14 15 15 15 16 16 15 15 15 15 14 14 14 13 13 13 12 13 14 14 14 13 12 11 12 19 23 21 20 20 20 20 21 21 21 22 22 22 21 21 21 21 21 22 21 22 22 23 24 24 24 24 25 25 26 26 26 24 23 25 24 24 26 27 27 27 26 28 27 24 26 28 27 26 25 25 26 27 27 27 26 25 25 25 25 24 24
11 15 15 15 15 16 16 15 16 15 15 15 14 14 14 14 13 13 14 13 14 14 12 13 13 14 20 23 21 20 21 21 22 21 21 22 23 23 23 22 22 21 21 21 21 21 22 23 23 24 24 25 25 25 26 25 24 26 25 22 24 24 24 25 26 27 27 27 28 27 26 27 28 27 26 25 25 26 27 27 26 26 25 25 25 25 25 24
12 15 15 15 16 16 16 16 16 15 15 15 14 14 14 14 13 13 13 13 13 12 12 14 15 15 20 22 21 22 23 23 22 21 21 21 22 23 23 23 23 22 22 21 21 22 23 23 23 23 24 25 25 25 24 22 22 24 25 23 23 24 24 24 25 26 27 27 27 27 27 27 27 27 27 26 26 26 27 27 26 25 25 25 25 25 25 24
13 15 15 15 16 16 16 16 16 16 15 15 14 14 14 14 13 12 13 12 12 11 12 14 15 17 21 22 22 23 23 23 21 21 21 20 21 23 23 24 24 23 23 22 22 23 23 24 24 24 25 25 25 25 22 21 22 22 23 23 23 24 24 24 25 26 26 27 27 26 27 27 27 27 27 26 26 26 26 27 26 26 25 25 25 25 25 24
14 15 15 16 16 16 17 16 16 16 15 15 14 13 13 13 12 12 12 13 14 17 18 18 18 20 22 22 23 23 22 22 21 22 22 21 21 23 23 24 24 24 23 23 23 23 24 24 24 23 24 24 25 25 23 23 24 23 24 23 23 23 24 25 25 25 26 26 27 26 26 27 27 27 27 26 25 25 26 26 25 25 25 25 25 25 25 25
14 15 16 16 16 16 17 16 17 16 15 14 12 12 14 15 16 16 16 16 19 21 21 22 22 22 22 23 23 23 22 22 22 23 22 22 22 23 24 24 24 24 24 24 24 23 23 23 23 24 24 24 23 23 23 24 24 24 24 24 24 23 24 25 25 25 25 25 26 26 26 26 27 27 26 25 25 24 25 25 25 25 25 25 25 25 25 25
14 15 16 16 16 17 16 17 17 16 16 14 12 15 19 19 20 20 19 20 22 22 21 22 22 22 22 23 23 23 23 23 24 24 22 22 24 24 24 24 23 24 24 24 23 23 22 23 23 24 24 23 22 22 22 23 23 23 24 23 23 23 24 25 25 24 25 24 25 26 25 26 27 26 26 25 24 24 25 25 25 25 25 25 25 25 25 25
14 16 16 16 16 17 17 17 17 16 16 14 14 18 21 20 19 19 19 20 22 22 21 21 21 21 22 22 22 22 22 24 24 24 22 22 24 24 24 24 24 24 23 23 23 22 22 23 24 23 22 22 21 22 22 23 23 23 24 23 23 24 24 24 24 24 24 24 25 26 25 26 27 26 26 25 25 25 25 25 25 25 25 26 26 25 25 25
15 16 16 16 16 16 17 17 16 16 16 15 17 21 20 18 18 18 18 20 21 22 21 21 21 22 23 23 22 21 23 24 24 24 23 23 24 24 24 24 24 24 23 23 23 22 22 23 24 22 22 22 21 21 22 23 23 23 24 23 22 24 24 22 23 24 24 23 24 25 24 25 27 26 26 26 25 25 24 24 24 25 25 25 26 25 25 25
15 15 16 16 16 16 17 16 15 15 16 16 19 20 18 17 18 17 18 20 21 22 22 22 22 23 23 23 22 22 24 24 24 25 24 23 24 24 24 24 24 23 24 24 23 23 23 23 22 22 21 22 22 22 22 23 23 23 24 23 23 24 23 23 23 24 24 23 23 24 23 24 26 26 26 26 25 24 24 24 24 24 24 24 24 25 25 24
15 16 16 16 16 16 16 15 15 16 17 18 19 19 17 17 17 17 19 20 21 22 22 21 22 23 23 22 22 23 24 24 24 25 24 24 25 24 24 24 24 24 24 23 23 24 23 21 21 22 22 22 23 22 23 23 23 23 23 24 24 24 24 24 24 23 22 22 23 23 21 22 24 25 26 26 25 25 25 25 25 25 24 24 24 24 24 24
16 16 16 16 16 15 15 16 17 16 18 20 19 18 17 17 17 17 18 21 21 22 22 22 22 22 23 23 23 23 23 23 24 24 24 24 24 24 24 24 24 23 23 23 23 24 23 20 20 22 22 22 23 23 24 24 22 22 23 24 24 24 24 23 23 22 21 21 22 23 21 21 23 24 25 26 25 26 25 25 25 25 25 25 25 25 25 24
16 16 16 16 16 15 16 18 18 18 19 20 19 17 17 18 17 17 19 20 21 21 22 22 22 22 22 23 24 23 22 23 23 23 23 23 24 24 23 24 24 23 23 23 22 22 22 21 21 22 22 23 23 23 24 24 23 22 22 24 24 24 23 23 23 22 22 22 22 23 23 21 21 23 25 25 25 26 25 25 25 25 25 25 25 25 25 25
16 16 16 16 16 16 16 17 18 20 20 19 18 18 18 18 17 18 19 20 20 22 23 23 22 22 23 23 23 23 23 23 23 23 23 23 23 24 23 24 24 24 23 22 21 21 22 22 22 22 22 23 24 24 24 23 23 22 21 23 24 24 23 23 23 22 22 22 21 22 23 21 21 23 25 25 24 25 25 25 25 25 25 25 25 25 24 24
17 17 16 16 16 16 16 16 17 20 19 18 18 18 18 18 18 19 20 19 20 22 23 23 22 22 23 23 23 23 23 24 23 23 23 23 23 24 23 24 24 24 23 23 22 22 22 22 22 23 23 23 24 23 23 23 23 22 22 23 24 24 23 23 23 22 22 21 20 21 22 21 21 22 23 24 23 24 25 25 25 25 25 25 24 24 24 24
17 17 17 16 16 16 16 16 17 19 18 18 18 18 18 18 19 20 19 19 21 22 23 23 23 23 23 23 23 23 23 23 23 23 23 23 23 23 23 23 24 23 23 23 23 23 22 21 21 22 23 23 23 22 21 22 22 22 22 23 23 23 23 23 23 22 21 20 21 21 21 21 20 21 23 23 23 23 24 24 25 25 25 24 24 23 23 23
18 18 17 17 17 16 17 19 19 18 18 18 18 18 18 19 20 20 19 20 21 22 23 23 23 23 23 23 23 23 23 23 23 23 23 23 23 23 23 22 23 23 23 22 23 23 23 21 21 23 22 23 23 22 21 21 22 22 23 23 22 22 22 22 22 21 20 20 21 21 22 21 20 21 23 23 23 23 23 24 24 24 24 23 23 23 23 23
18 18 18 17 17 17 17 19 18 18 18 18 18 19 20 20 20 20 20 21 21 22 22 22 22 23 23 23 23 22 23 23 23 23 23 23 23 23 23 23 23 22 21 21 22 22 23 24 23 23 22 22 23 23 22 22 22 22 23 22 21 20 21 20 20 21 20 20 21 21 21 20 20 22 24 23 23 23 22 22 23 22 22 22 22 22 22 22
18 18 18 17 17 16 17 17 18 18 18 18 18 20 20 19 20 20 21 21 20 21 22 22 22 22 22 23 22 22 22 22 22 23 23 23 23 22 22 22 22 21 21 21 21 21 22 24 23 22 22 22 23 23 22 22 22 22 22 21 20 20 20 20 20 20 20 20 21 21 21 20 21 22 23 23 22 22 21 21 21 21 21 21 21 22 22 22
18 18 18 18 17 17 17 18 18 18 18 18 20 21 20 19 20 20 21 21 21 21 22 21 22 22 22 22 21 22 22 22 22 23 23 23 23 22 22 21 22 22 22 21 21 21 21 21 22 22 22 22 23 23 23 23 23 23 23 23 21 20 20 20 20 20 20 20 20 20 20 20 21 21 22 22 21 21 21 21 21 21 21 21 22 22 22 22
18 17 18 17 17 17 18 18 18 18 18 20 21 20 19 19 20 20 21 22 22 22 22 21 22 22 22 22 21 21 21 21 22 23 23 23 22 21 22 21 21 22 22 21 21 21 20 21 22 22 21 22 23 23 23 23 23 23 24 23 21 21 21 20 20 19 19 20 20 20 20 21 21 21 21 21 21 21 21 21 21 21 21 21 21 21 21 21
17 17 17 17 17 17 18 18 18 17 18 20 20 20 20 20 21 21 21 21 21 22 22 21 22 22 21 21 21 21 21 21 22 22 22 22 21 21 21 21 21 21 21 21 21 21 20 21 22 22 21 22 22 22 23 22 22 22 22 21 22 23 22 20 19 19 18 19 20 20 20 22 22 21 22 22 21 21 21 21 21 21 21 21 21 21 21 21
17 17 18 18 17 18 18 19 18 18 19 20 20 20 21 21 21 21 21 20 20 21 21 21 21 21 21 21 21 21 21 21 22 22 21 21 21 20 20 20 20 20 21 21 21 21 20 21 22 22 22 21 21 22 23 22 22 22 21 22 23 23 22 21 20 19 19 19 20 20 20 21 21 21 21 22 21 21 21 21 21 21 21 21 20 20 20 20
16 17 19 18 17 18 19 19 18 19 20 20 19 19 20 20 20 20 20 20 20 21 21 21 21 21 21 20 21 21 21 21 21 21 21 21 20 19 20 20 20 20 21 21 21 21 20 20 22 22 22 22 22 22 22 22 22 22 22 23 22 21 21 21 20 19 19 19 20 20 20 20 20 21 21 21 21 21 21 21 21 21 21 20 20 20 19 19
16 18 19 17 17 18 18 18 18 20 20 19 19 20 20 20 20 20 20 20 20 21 21 21 21 20 21 21 21 21 21 20 21 21 20 21 20 19 19 20 20 20 20 21 21 21 20 20 20 22 22 22 22 22 21 21 22 22 22 23 22 21 20 21 20 20 19 19 19 20 20 20 21 22 22 22 22 21 21 21 21 20 20 19 19 19 19 18
17 19 19 17 16 18 18 18 19 20 19 19 20 20 20 20 20 20 20 19 20 21 21 21 21 20 20 21 21 21 20 20 21 21 20 21 20 19 19 19 19 20 20 20 21 20 20 19 19 21 22 21 21 21 21 21 22 21 21 21 21 21 21 21 20 21 20 19 19 19 19 20 21 22 23 23 22 21 21 21 20 20 19 19 18 18 18 18
17 18 18 16 17 18 17 18 19 19 19 19 19 19 19 19 20 20 19 19 20 20 20 20 20 20 20 20 20 21 20 20 20 20 20 20 20 19 18 17 18 19 20 20 21 20 20 19 19 20 21 21 21 21 20 20 21 21 21 21 21 21 20 20 19 20 20 20 20 19 19 20 20 20 21 23 21 21 21 21 20 20 19 18 18 17 17 17
17 19 18 16 17 18 18 19 19 18 19 19 19 19 18 18 19 20 19 19 20 20 20 20 20 20 20 20 20 20 20 20 20 20 20 20 20 19 17 16 17 18 19 20 20 19 18 19 19 19 20 21 21 20 19 19 20 20 20 21 21 21 20 19 19 20 20 20 20 20 19 20 19 19 20 22 21 21 21 20 20 19 19 18 18 17 17 17
17 18 17 16 17 18 18 19 18 18 19 18 18 18 18 18 19 19 19 19 20 20 20 19 19 19 19 20 20 20 20 20 20 20 20 20 19 18 17 17 17 18 19 20 19 18 17 18 19 19 20 21 21 20 19 19 19 20 20 20 20 20 20 20 19 20 19 19 19 19 18 19 19 18 19 20 20 20 20 20 20 19 18 18 18 17 17 17
16 16 17 17 16 17 18 18 18 18 18 17 17 18 17 17 18 18 18 19 19 19 19 19 19 19 19 19 19 20 20 19 19 19 19 19 18 17 16 17 17 18 19 18 18 18 18 18 18 18 18 19 19 19 19 19 19 19 20 20 19 20 20 19 19 19 18 19 19 18 18 20 19 18 19 19 19 20 19 19 19 18 18 18 18 17 17 17
15 16 17 17 17 17 17 17 17 18 17 16 17 17 17 17 17 17 17 18 18 18 18 18 18 18 19 18 18 19 19 18 18 18 18 18 18 16 16 17 17 18 18 16 17 18 18 18 18 17 17 17 17 18 18 18 19 19 19 19 18 19 19 18 19 19 18 19 19 18 18 20 19 18 19 19 19 19 19 19 19 19 18 18 18 17 17 17
15 16 16 17 17 16 15 15 16 17 17 16 16 16 16 17 16 16 17 17 17 17 17 17 17 18 18 18 17 18 18 18 18 18 18 18 17 16 16 16 17 17 16 15 16 18 17 18 18 17 17 17 18 19 19 18 18 19 18 18 18 18 18 18 18 18 18 19 19 19 19 20 19 18 19 19 19 19 19 19 19 19 18 18 17 17 17 17
14 14 14 14 15 16 16 15 15 16 15 15 15 15 15 16 16 16 16 16 16 16 16 17 17 17 17 17 17 17 17 18 17 17 18 18 18 17 16 16 17 16 15 15 17 17 17 17 17 17 17 18 18 19 18 17 17 18 18 18 18 18 17 17 17 18 19 18 18 19 20 19 19 19 19 19 19 19 19 19 19 19 18 17 17 17 17 17
13 12 12 11 12 14 14 14 14 15 15 15 14 14 14 15 15 15 15 16 16 16 16 16 16 16 17 17 17 16 16 17 16 16 17 17 17 17 16 16 16 16 16 17 17 17 16 16 17 17 16 17 18 18 17 17 17 17 17 17 17 17 17 16 16 17 18 17 17 19 19 18 19 20 20 20 19 19 19 19 19 19 18 17 17 17 17 17
12 12 12 11 12 13 12 12 13 14 14 14 14 13 14 14 14 14 14 15 15 16 16 15 15 16 16 16 16 16 16 15 15 15 16 16 16 16 16 16 16 16 17 17 16 16 16 16 16 16 16 16 17 17 17 17 16 16 17 17 17 17 17 17 16 17 17 17 17 17 17 17 18 20 20 19 19 19 19 19 18 18 17 17 17 17 17 16
10 10 10 11 12 12 12 12 13 13 14 13 13 13 13 13 13 13 14 13 13 14 15 15 15 15 15 16 16 15 14 13 14 14 14 15 15 15 16 16 16 16 16 16 16 15 15 15 15 15 15 15 16 17 17 16 16 16 16 16 17 16 16 16 16 16 16 16 16 16 15 15 17 19 20 19 18 18 18 18 17 17 17 17 17 17 16 16
8 7 7 10 12 11 12 12 13 13 14 13 12 12 12 12 12 13 13 13 13 13 13 14 14 14 15 15 14 13 12 12 13 13 13 14 14 15 15 15 16 16 16 16 15 15 14 15 15 14 14 14 16 16 16 16 16 15 15 15 15 15 15 15 16 16 15 15 15 15 14 15 17 19 19 19 18 18 18 17 17 17 17 17 17 16 16 16
7 7 7 9 11 11 11 12 13 13 12 11 11 11 12 12 12 12 12 12 13 13 12 13 13 14 15 14 12 12 12 12 13 13 13 14 14 15 15 15 15 15 15 15 15 14 15 14 15 14 13 14 15 15 15 14 13 13 14 15 15 15 15 15 15 16 16 15 14 14 15 16 17 17 17 18 18 18 17 18 17 16 16 17 16 16 16 15
Height
803 803 802 801 800 799 798 797 797 796 795 794 794 793 793 792 791 791 790 790 790 789 789 788 787 787 786 785 784 782 781 781 780 780 778 773 772 773 772 773 773 775 776 777 778 778 777 777 777 777 777 776 775 773 774 773 772 774 776 780 777 772 769 764 763 762 762 762 760 758 759 764 763 758 755 754 756 755 756 757 757 758 758 759 759 762 768 774
803 802 801 800 799 799 798 797 796 795 795 794 793 793 792 792 791 790 790 789 789 789 788 787 786 786 785 784 782 781 780 780 779 776 773 771 771 771 772 772 773 775 775 776 776 775 775 775 775 776 775 774 774 773 774 773 773 775 774 777 774 766 763 761 762 762 763 764 762 760 759 762 763 759 756 758 758 756 759 760 760 762 763 761 762 767 772 775
802 801 800 800 799 798 797 796 796 795 794 793 793 792 791 791 790 789 789 789 788 788 787 786 785 785 784 783 781 780 780 779 776 772 770 770 770 770 771 772 773 775 775 775 775 775 774 773 774 774 773 773 773 773 774 773 773 772 773 777 769 762 762 762 763 764 762 763 763 762 760 760 760 758 757 758 758 758 759 758 759 764 765 764 765 769 773 775
801 801 800 799 798 797 797 796 795 794 793 793 792 791 791 790 789 788 788 787 787 787 786 785 784 784 782 781 780 780 780 777 771 768 769 769 768 769 771 772 773 775 775 775 775 775 775 774 774 773 773 773 772 773 773 772 772 771 773 773 763 761 766 763 761 762 761 762 764 764 761 760 758 758 758 758 760 760 755 752 756 759 762 765 767 771 773 775
801 800 799 798 797 796 796 795 794 793 792 791 791 790 790 789 788 788 787 787 786 786 785 784 783 782 781 781 779 780 780 775 769 767 768 767 767 768 770 772 773 774 776 776 775 775 775 773 773 773 773 772 773 774 772 769 770 772 771 767 762 763 768 763 760 762 762 763 764 764 763 760 758 758 758 758 760 758 750 749 753 754 758 763 766 772 774 775
800 799 798 797 796 795 794 794 793 792 791 790 790 789 789 788 788 787 786 786 785 785 784 783 782 781 781 779 779 780 778 772 768 768 768 767 766 768 770 772 773 775 776 775 774 774 773 772 773 773 772 771 772 772 770 769 770 773 767 763 764 764 766 763 760 761 762 764 765 763 761 759 760 759 756 756 757 754 749 750 753 754 757 762 766 772 776 776
799 797 797 796 795 794 793 793 792 791 790 790 789 788 788 787 787 786 785 785 784 783 782 782 781 780 780 779 779 778 773 768 768 768 768 767 768 769 771 772 773 775 775 774 773 773 772 772 771 771 771 772 772 771 771 770 770 772 767 763 764 763 764 763 759 760 761 763 762 760 760 760 761 759 756 756 754 754 752 751 753 756 759 764 769 773 776 776
797 796 795 795 794 793 792 792 791 790 790 789 788 787 787 786 785 785 784 784 783 782 782 781 780 780 779 779 778 772 768 768 768 768 768 768 769 770 772 773 774 775 774 773 772 771 771 771 770 770 771 771 771 771 771 771 770 771 768 764 763 762 762 759 759 760 759 760 759 759 761 760 757 756 757 756 754 754 753 752 754 758 762 768 773 774 775 777
796 795 794 794 793 792 791 791 790 789 789 788 787 787 786 785 784 784 783 782 782 781 781 780 780 780 779 779 775 769 768 769 769 768 768 769 770 771 772 773 774 774 773 772 772 771 770 770 770 769 769 770 771 770 770 772 770 767 766 763 762 762 759 758 759 759 759 759 758 760 761 758 756 756 757 754 754 755 753 754 756 760 765 769 773 775 776 778
795 794 793 793 792 791 790 790 789 788 788 787 786 786 785 784 783 783 782 782 781 781 781 780 780 779 779 779 774 769 770 770 769 769 769 770 771 772 773 773 774 773 772 773 772 771 769 769 769 768 768 769 770 770 769 770 766 764 764 763 762 760 758 759 760 759 758 758 759 759 759 757 756 757 758 755 755 755 755 757 758 761 766 768 772 774 776 779
794 793 792 791 791 790 790 789 788 788 787 786 786 785 784 783 783 782 781 781 781 780 780 779 779 779 780 778 771 768 770 770 770 770 770 771 772 772 773 773 773 773 772 772 772 771 770 769 768 768 769 768 769 769 768 766 764 764 764 764 760 758 759 759 759 758 756 758 757 755 756 757 756 758 758 756 756 755 756 759 759 761 765 767 771 774 776 778
793 792 791 791 790 790 789 789 788 787 786 785 785 784 783 783 782 781 781 780 780 780 780 779 779 779 780 776 769 768 770 771 770 770 770 771 773 773 773 773 773 773 772 771 771 772 772 771 770 770 769 767 768 769 767 764 764 764 764 766 760 756 760 758 757 757 754 757 755 753 759 759 757 758 758 757 756 756 757 759 759 761 764 767 770 773 775 776
792 791 790 790 789 789 789 788 787 786 785 785 784 783 783 782 782 781 781 780 780 780 779 779 779 780 780 773 768 769 770 770 770 770 771 772 773 773 773 774 774 773 773 772 771 773 773 772 771 770 768 767 767 766 765 763 764 764 762 764 759 757 761 757 755 755 754 758 755 755 765 760 754 757 758 757 757 758 759 759 759 760 763 766 769 771 773 775
791 790 789 789 789 789 788 787 786 786 785 784 783 783 782 781 781 781 780 780 780 780 780 780 779 781 778 770 768 770 769 770 771 770 771 772 772 773 774 773 774 774 773 773 773 773 773 772 772 770 768 767 765 764 764 763 763 762 762 762 758 759 763 757 755 754 755 758 752 756 764 757 754 758 758 758 757 758 760 759 759 761 763 766 768 770 771 773
790 789 788 788 788 788 787 786 786 785 784 784 783 782 781 781 781 780 780 780 780 779 780 780 780 780 774 767 769 769 769 770 770 770 771 771 771 772 773 773 774 774 774 774 774 774 773 772 771 769 768 766 766 766 765 762 760 760 764 766 758 757 762 760 756 753 756 757 750 756 761 753 755 758 757 758 758 759 759 759 760 761 763 765 767 768 770 773
789 788 787 787 787 786 786 785 785 784 784 783 782 782 781 781 780 780 780 780 780 780 780 780 780 779 772 767 769 769 768 768 768 770 770 770 771 770 772 773 773 774 774 774 774 774 773 772 770 769 767 765 766 765 762 763 763 759 761 766 762 758 760 761 760 754 755 757 753 757 758 752 756 758 756 758 758 759 759 759 760 762 763 765 766 767 769 772
787 787 786 786 786 785 785 785 784 783 783 783 782 781 781 780 780 780 780 780 780 780 780 780 779 779 772 767 768 768 766 767 768 769 769 770 771 770 771 771 771 773 773 773 774 773 772 771 770 770 767 766 765 763 768 772 769 763 760 764 766 762 759 761 762 758 754 757 757 758 758 756 758 756 756 758 758 759 759 759 761 762 764 764 765 766 768 771
786 786 785 785 785 785 784 784 783 783 782 782 781 781 781 780 780 780 780 780 780 780 781 780 779 778 773 767 766 766 765 766 767 768 768 769 770 770 770 769 769 771 771 772 772 772 772 770 769 769 767 767 765 763 771 773 767 766 765 766 767 765 762 760 762 761 758 758 760 762 760 758 758 756 756 757 757 760 759 759 761 761 763 764 764 765 766 770
785 785 784 784 784 784 783 783 783 782 782 781 781 781 780 780 781 780 781 780 778 776 775 774 773 772 769 765 763 763 764 766 767 767 768 768 769 770 769 769 768 769 771 771 771 770 770 770 771 772 769 766 766 765 768 768 765 767 766 765 765 764 763 760 761 762 761 761 760 762 762 760 759 757 758 758 759 761 760 760 762 762 762 763 763 764 765 769
784 784 784 783 783 783 783 782 782 781 781 781 781 781 780 779 777 776 777 776 772 768 766 766 766 765 763 762 762 763 764 765 765 765 767 767 768 768 768 768 768 769 770 769 770 770 770 774 772 769 767 767 771 771 770 769 769 770 769 768 765 763 762 760 763 763 763 765 761 761 764 761 759 758 759 760 761 763 762 761 763 763 762 762 763 764 765 768
783 784 783 782 782 782 782 782 781 781 780 780 781 780 777 776 776 775 773 769 765 764 765 764 764 764 762 762 762 762 763 763 763 763 766 766 765 767 767 767 770 770 768 769 771 771 774 776 770 767 768 771 773 774 774 773 773 772 770 768 766 765 761 760 765 765 764 767 762 762 765 761 758 758 759 760 762 763 761 762 763 762 762 762 762 764 765 767
783 783 782 782 782 781 781 781 781 781 780 780 780 777 775 776 777 777 775 770 764 763 765 764 764 764 761 762 762 762 763 763 763 763 764 765 765 766 766 766 769 768 768 771 773 774 776 772 767 768 771 774 776 776 775 774 774 772 769 769 768 763 761 764 767 765 766 768 763 762 765 760 756 756 757 759 760 760 759 760 761 761 761 761 762 763 764 766
783 782 782 782 781 781 781 780 780 780 780 780 778 776 776 778 777 776 776 773 766 763 763 763 763 762 760 761 761 762 762 760 762 762 762 764 764 764 764 765 767 768 770 771 771 773 773 767 766 770 772 774 777 777 776 774 772 771 767 769 768 764 766 770 771 768 767 769 766 765 767 760 755 756 756 757 757 758 759 760 761 761 761 761 761 761 762 765
783 782 782 781 781 781 780 780 780 779 780 779 778 777 777 777 776 776 775 771 767 763 760 761 760 759 759 759 759 760 760 758 759 759 760 762 762 763 763 763 767 769 767 767 770 769 768 768 768 772 774 773 775 777 776 772 769 769 768 767 766 765 768 768 769 770 768 771 769 767 770 761 753 756 755 754 758 759 760 761 761 761 761 762 761 761 762 763
783 782 782 781 781 781 780 781 779 779 779 777 777 777 776 776 775 776 774 770 769 763 759 761 760 759 758 758 760 758 758 758 757 757 759 759 760 763 764 763 765 767 765 767 771 767 767 773 773 773 774 772 773 774 770 769 768 768 768 765 764 765 767 767 768 771 772 775 771 770 779 769 754 756 755 753 757 758 758 759 760 760 760 761 761 761 761 762
783 782 782 781 781 781 781 779 778 779 778 775 777 776 776 776 773 775 774 769 768 764 761 761 760 759 758 758 758 757 761 762 757 757 759 759 759 761 764 764 764 766 766 767 768 765 768 774 774 773 773 772 773 770 766 767 768 768 765 760 762 763 767 769 770 773 775 775 771 770 780 775 760 756 755 754 757 755 757 759 758 758 758 758 758 758 759 760
782 782 781 781 781 781 780 778 778 778 775 775 776 775 775 774 772 775 774 774 774 767 761 760 759 759 758 757 756 759 768 764 757 759 759 760 759 759 764 764 764 766 766 768 771 769 769 773 775 774 772 772 770 766 765 765 767 769 765 760 761 763 768 770 769 772 770 768 771 767 770 777 769 758 754 755 757 755 756 760 759 757 757 757 757 757 757 758
781 781 781 780 780 780 779 778 778 776 774 775 774 775 774 772 773 773 776 787 781 763 759 759 758 758 756 756 756 759 763 759 761 763 758 759 761 760 763 762 761 763 764 769 774 771 769 772 773 772 772 770 762 759 762 764 766 769 767 762 761 763 767 768 767 769 768 774 779 767 767 781 774 758 755 757 758 757 757 759 759 757 757 758 758 758 757 758
781 780 780 780 779 779 779 779 778 775 775 775 774 774 772 772 774 771 777 788 776 758 758 758 757 759 756 757 758 758 758 757 761 761 757 760 760 760 763 761 759 763 765 767 769 768 768 768 768 768 770 765 760 761 763 764 767 768 766 763 762 764 766 768 769 767 771 784 783 767 769 782 775 759 757 759 759 758 757 758 757 757 757 758 759 760 759 758
779 779 779 779 779 779 778 777 777 776 775 774 774 773 771 772 773 777 786 785 769 760 759 756 758 759 757 759 760 759 759 758 758 758 759 760 759 760 762 761 761 763 765 766 765 764 765 768 769 767 766 762 762 767 768 767 767 766 766 764 765 766 764 767 766 765 778 787 778 767 769 780 780 763 753 758 761 760 760 759 757 757 757 758 760 760 759 758
778 778 778 778 778 778 776 776 775 775 775 774 773 772 772 772 771 781 788 775 764 762 759 757 760 758 757 759 760 759 759 759 759 759 760 760 761 761 762 764 764 765 767 766 764 762 763 767 767 763 763 762 764 768 769 768 766 766 765 765 770 772 770 773 770 774 789 787 774 769 768 778 785 768 753 758 761 760 762 761 760 760 760 760 761 760 759 759
777 777 778 777 777 777 776 775 774 774 774 772 772 770 771 776 776 778 775 767 768 766 760 762 761 759 760 758 760 762 760 761 761 759 759 759 760 762 764 765 765 770 774 768 766 765 761 759 759 761 762 762 764 766 768 769 767 767 765 768 778 781 782 786 781 779 784 778 771 770 773 781 778 761 754 760 760 761 763 762 763 764 763 763 763 761 760 759
777 777 777 777 777 776 776 774 773 774 772 772 772 767 770 781 781 773 766 765 770 765 759 763 761 760 761 759 763 764 761 763 762 760 761 759 760 765 768 766 764 771 775 771 770 770 763 757 758 763 763 761 762 763 767 768 766 767 766 771 781 783 789 794 785 777 776 774 771 770 778 783 770 757 757 760 762 763 764 764 765 766 766 766 763 761 760 758
777 776 776 776 776 776 774 774 773 772 771 771 769 768 777 784 777 771 767 764 764 762 761 764 762 761 762 761 766 765 763 766 761 760 762 759 762 767 768 769 767 767 769 771 773 772 773 769 763 763 764 763 762 759 760 760 760 762 758 763 773 776 785 790 782 778 775 774 776 779 783 779 769 765 762 760 763 764 764 765 766 766 766 765 763 761 761 759
776 775 775 775 775 775 773 773 772 771 771 769 767 772 781 780 770 767 767 762 761 762 762 763 762 763 764 764 767 765 765 767 762 761 762 762 766 769 768 770 770 767 769 774 774 773 776 771 761 762 763 761 761 758 756 759 762 759 754 761 769 765 768 778 782 782 781 779 779 781 776 764 761 765 761 760 764 763 765 765 765 767 766 764 765 763 763 762
775 775 774 775 775 773 773 772 771 771 770 767 771 774 773 769 764 763 764 762 763 762 762 764 763 763 766 766 767 766 766 766 764 763 766 767 769 771 771 772 771 770 769 772 773 773 776 770 760 762 763 760 762 760 757 762 764 762 762 765 761 754 759 774 785 786 789 791 778 771 770 761 759 764 759 760 764 763 765 765 764 767 766 766 768 766 765 764
775 774 773 773 773 772 772 771 770 771 768 767 773 773 766 764 764 762 762 764 764 762 764 767 766 765 767 767 767 767 766 766 764 765 767 770 772 774 773 773 772 771 768 769 770 770 774 771 759 759 764 762 762 761 757 758 760 763 767 762 754 756 761 770 783 785 788 790 774 767 774 770 766 768 763 761 765 765 765 765 766 767 767 768 770 769 769 768
774 773 772 772 772 771 770 770 770 769 767 768 773 772 765 764 764 762 763 765 764 763 764 767 767 766 767 768 767 766 766 767 766 766 768 769 774 776 774 773 773 771 769 769 770 771 775 775 763 757 763 762 759 762 763 759 757 760 760 756 759 772 772 771 782 786 785 787 777 769 772 768 762 763 762 761 763 765 765 765 766 767 768 771 771 772 772 771
773 771 770 771 771 770 769 770 769 767 768 771 771 768 764 763 763 763 764 764 763 764 764 763 764 767 767 766 766 766 768 769 767 769 770 769 774 777 775 774 774 772 770 769 770 771 774 779 773 760 760 762 759 761 765 762 758 759 759 756 758 768 771 769 775 779 782 787 783 776 772 766 755 750 752 756 759 763 766 766 767 769 771 773 774 775 774 774
773 769 767 769 770 769 768 768 768 767 769 769 766 764 763 763 764 764 765 765 763 763 763 762 764 767 767 766 766 766 768 770 767 769 770 769 774 777 776 777 775 773 772 770 771 772 773 781 781 764 759 766 764 761 762 761 760 761 763 763 763 765 766 768 768 767 775 783 783 783 778 764 754 750 749 750 756 761 764 766 768 770 772 774 776 777 777 776
773 769 767 768 769 768 768 768 767 766 766 766 765 764 765 765 764 763 765 766 763 762 763 763 763 765 766 767 767 766 768 770 768 768 769 768 771 776 778 780 779 776 774 770 771 774 775 779 781 772 766 766 764 761 763 765 764 764 763 762 762 764 768 777 775 765 767 773 773 778 777 762 757 759 753 750 757 761 761 765 768 770 773 776 778 779 779 778
772 768 766 768 768 767 767 766 766 767 766 765 765 765 767 768 766 765 765 764 763 762 762 764 765 765 766 766 765 765 767 769 768 768 768 767 769 773 779 783 782 778 777 773 772 777 779 778 780 778 770 763 762 764 767 769 767 766 765 762 760 763 767 777 779 769 767 770 766 771 775 765 760 762 757 754 758 760 761 765 768 771 774 777 778 780 780 780
771 768 767 768 767 766 768 767 767 768 766 765 766 767 769 769 767 766 766 765 764 764 764 765 766 767 767 767 766 767 768 769 769 768 769 770 772 777 780 781 781 779 776 774 774 779 782 780 780 778 767 759 760 764 766 769 770 769 766 763 765 766 765 770 771 769 773 774 770 777 779 767 762 764 762 760 760 762 765 767 768 773 776 777 779 780 780 781
772 770 768 768 766 765 766 767 765 764 765 767 769 769 769 770 769 768 768 767 767 767 767 768 768 768 769 769 769 767 768 772 772 770 771 772 775 781 781 780 780 777 775 777 777 779 782 779 780 783 778 773 771 770 769 770 770 768 765 766 769 767 767 771 771 771 778 774 770 778 775 763 762 766 765 765 765 765 768 769 770 773 776 777 779 779 780 781
773 771 769 768 767 765 767 769 766 764 767 771 771 771 771 771 772 772 771 770 770 770 770 770 770 770 769 770 771 769 769 773 774 773 774 773 776 781 782 781 780 776 778 782 779 779 782 779 780 786 787 785 781 775 772 770 766 766 768 771 773 771 770 774 773 774 777 770 767 774 770 758 761 767 766 766 767 767 768 770 771 772 774 776 778 779 780 781
773 772 771 768 767 768 771 773 771 768 770 773 773 774 774 772 773 774 773 773 773 772 772 772 771 772 771 772 774 773 771 772 774 774 774 774 776 781 783 782 781 779 783 786 782 780 782 780 780 782 781 779 774 767 768 772 771 770 772 772 773 774 774 775 776 775 771 767 766 767 762 759 764 766 766 766 766 766 767 769 770 771 774 776 777 779 780 780
776 779 780 778 774 771 772 774 774 773 774 776 776 778 777 774 774 774 774 774 775 774 774 774 773 774 775 774 775 775 774 773 774 775 774 774 775 780 784 783 782 783 785 785 782 781 784 783 780 780 779 775 770 767 769 775 777 775 773 772 772 774 775 778 780 774 768 771 770 759 756 763 765 761 762 765 765 765 766 767 769 770 773 776 778 779 780 780
782 786 789 789 785 779 778 780 780 778 777 777 779 781 780 777 777 777 777 776 775 775 776 777 776 775 775 775 776 777 776 776 777 778 777 777 777 779 782 782 782 784 783 782 781 782 785 784 778 778 781 776 772 772 774 777 778 776 775 775 774 774 776 779 780 774 771 776 773 762 761 768 764 757 758 762 763 764 763 764 766 770 773 775 777 779 780 780
788 789 790 792 789 785 786 788 785 782 780 780 782 784 783 781 781 782 781 780 778 777 778 780 779 777 776 776 776 776 778 781 782 781 780 781 782 781 781 782 783 782 781 781 783 784 786 784 779 779 782 779 774 773 774 777 779 777 775 775 774 774 774 776 776 773 772 772 770 768 771 771 765 759 757 759 762 763 763 765 768 771 774 775 777 778 779 780
797 797 797 792 787 788 790 788 786 783 781 783 784 786 786 785 785 786 785 786 785 782 780 781 781 780 779 778 778 780 785 788 787 786 786 786 785 783 781 780 781 781 782 783 785 787 789 787 783 784 786 783 777 773 773 776 777 777 776 773 773 774 774 775 775 774 775 774 772 774 778 776 768 761 758 760 764 765 766 768 770 771 773 775 776 777 779 781
805 806 805 796 790 791 791 788 786 783 782 785 788 789 789 789 789 789 789 790 789 788 787 785 783 783 781 781 784 788 792 793 791 791 791 789 786 785 784 783 782 782 783 784 786 788 789 787 785 788 790 784 777 775 775 776 777 777 776 776 776 776 776 775 774 774 776 778 778 779 778 773 765 759 757 759 762 765 766 767 769 771 773 774 776 777 779 781
809 807 807 800 794 794 793 788 786 785 788 795 796 794 793 792 791 792 792 792 791 790 791 789 787 784 782 785 791 794 795 795 793 792 791 790 788 787 786 785 785 785 785 786 787 788 788 787 785 787 788 783 777 778 780 783 785 781 775 774 775 775 774 773 772 771 771 774 777 776 771 766 763 762 762 760 760 763 764 765 768 771 772 773 775 777 779 781
Wind_Speed
10 10 10 9 9 9 9 9 9 9 9 9 8 9 8 8 8 8 7 7 7 7 7 7 8 9 9 9 10 11 12 11 10 8 11 10 6 7 5 2 10 15 12 9 9 8 8 8 8 8 8 6 5 4 6 5 3 4 5 6 6 5 3 1 3 2 4 2 3 7 8 10 10 1 2 3 9 9 10 8 5 6 6 8 15 22 25 24
10 10 10 9 9 9 9 9 9 9 9 9 8 9 8 8 8 8 7 7 7 7 7 7 8 9 9 9 10 11 12 11 12 11 11 9 8 8 5 6 13 16 13 9 10 9 8 8 8 9 8 5 4 4 6 5 5 6 4 5 6 5 2 2 3 4 5 6 8 9 8 10 9 2 1 5 10 12 11 10 9 9 9 11 18 21 23 23
10 10 9 9 9 9 9 9 9 9 9 9 8 9 9 9 8 7 7 7 7 7 7 7 8 8 9 9 10 10 11 11 9 4 4 3 5 8 8 10 15 15 10 8 7 7 5 5 7 9 7 5 4 5 6 6 5 6 4 6 5 3 3 2 4 6 6 8 10 9 10 9 4 1 2 6 8 12 12 11 12 12 12 14 17 18 22 22
11 10 9 9 9 9 9 9 9 9 9 9 8 8 8 9 8 8 7 7 7 7 7 8 7 8 8 9 9 9 9 9 2 4 1 5 5 8 12 13 15 13 8 7 6 5 4 5 7 8 7 5 5 5 6 6 4 4 4 7 4 2 4 5 4 6 7 8 10 9 10 7 2 2 5 6 7 10 12 10 9 12 15 15 16 16 20 21
11 11 11 10 10 10 10 10 10 10 9 9 9 8 8 8 8 8 7 7 7 7 7 7 7 8 8 9 8 6 6 4 3 4 4 7 4 11 17 16 15 11 8 9 7 6 6 6 7 7 7 5 5 7 6 6 3 3 7 9 6 4 6 5 4 5 6 7 8 8 9 6 3 5 6 7 7 4 5 6 4 7 14 16 17 16 17 18
11 11 11 10 10 11 10 10 10 10 10 9 9 9 9 8 8 8 8 7 7 7 7 6 7 7 8 8 5 5 6 1 4 3 6 4 5 16 20 17 14 11 9 9 7 7 7 7 8 6 6 5 6 6 4 6 5 6 7 7 7 7 7 6 6 5 5 7 8 7 7 6 6 6 4 8 4 4 3 5 4 7 13 15 17 16 16 17
11 11 12 11 11 11 10 10 9 9 9 9 8 8 8 8 8 8 7 7 7 6 6 6 6 7 7 6 2 6 5 3 5 5 4 3 12 19 19 15 12 11 10 8 7 7 6 8 7 5 5 4 5 5 3 5 8 8 7 4 6 7 7 8 7 6 6 9 9 8 7 6 7 3 3 7 1 6 3 5 8 11 13 14 15 16 16 16
12 11 12 11 11 10 10 10 9 9 9 8 8 8 8 7 7 7 7 7 6 5 5 5 5 6 6 4 4 6 1 6 6 5 1 10 16 19 17 12 10 11 10 7 6 6 6 6 4 4 6 3 3 5 4 6 9 9 8 5 6 5 6 7 7 8 8 8 6 6 7 6 5 2 2 5 4 4 3 7 11 14 14 14 14 16 16 14
12 12 12 11 10 9 9 9 9 9 9 8 8 8 8 7 7 7 6 6 6 5 4 5 4 5 5 3 7 3 4 6 5 2 7 15 17 19 15 10 11 10 8 6 4 5 5 4 2 3 3 3 3 4 4 7 6 6 8 6 6 7 6 6 6 8 6 4 3 4 5 3 2 3 3 4 5 5 5 9 12 14 15 14 14 14 14 14
12 11 11 10 9 8 8 8 8 9 9 8 8 8 7 7 7 6 6 6 5 4 4 5 3 3 4 5 7 1 5 4 3 5 10 17 18 17 11 9 11 9 7 5 5 5 2 1 2 1 1 3 4 3 4 6 1 1 7 7 9 9 6 5 6 6 4 3 4 5 3 3 4 6 3 6 6 5 6 9 12 13 14 15 15 14 13 14
12 10 10 9 8 8 7 7 8 8 8 8 8 8 7 7 6 5 5 5 4 4 4 5 3 3 4 7 6 2 5 2 2 6 10 17 17 13 9 8 9 8 6 6 6 4 0 2 1 2 2 3 4 4 5 4 3 3 7 8 9 7 4 4 4 4 5 4 4 6 3 5 6 4 2 6 6 5 7 9 11 12 13 14 15 14 12 13
11 10 9 8 7 7 7 7 7 7 7 8 8 8 7 6 6 6 5 4 4 4 4 4 3 4 5 7 2 4 4 1 3 7 10 14 12 9 7 6 6 6 5 6 5 3 1 1 3 4 0 1 4 5 3 1 5 6 6 7 7 5 4 2 2 3 4 3 2 5 5 7 6 4 6 5 5 6 7 8 11 11 11 13 13 12 11 12
11 10 9 7 7 6 6 6 6 7 7 7 8 8 8 6 5 5 4 4 4 4 4 4 3 3 5 3 4 3 2 2 4 8 10 10 8 7 6 5 4 4 3 3 3 2 4 2 5 5 2 3 2 1 1 3 6 6 5 6 5 6 5 4 3 5 4 2 2 6 6 7 7 7 6 4 5 7 8 8 10 10 10 11 12 11 11 12
11 10 9 7 6 6 6 5 7 7 7 7 8 8 8 7 5 4 4 3 3 3 3 3 2 3 5 2 5 2 1 3 5 8 9 10 8 7 6 5 4 3 2 1 2 1 4 4 6 4 2 5 2 2 5 5 5 4 4 4 4 5 6 8 3 5 5 3 3 7 6 5 7 6 5 4 4 6 7 8 9 9 9 10 10 11 11 11
10 9 8 7 6 6 5 5 7 7 6 6 7 8 7 7 5 4 4 2 2 2 1 2 2 4 4 4 4 1 1 3 6 7 9 10 9 8 7 6 5 3 2 1 0 1 2 4 6 4 2 3 4 5 5 5 5 4 4 4 4 4 6 10 5 2 4 4 2 6 6 4 6 5 4 3 4 5 6 7 8 9 10 9 10 10 10 10
10 9 7 6 6 6 5 5 6 7 6 6 7 7 5 5 4 4 4 2 2 1 0 2 3 5 4 4 4 2 3 4 4 5 9 9 6 6 8 8 5 4 4 2 2 2 2 4 3 3 2 3 5 5 4 4 5 5 4 2 3 3 5 8 6 5 4 3 3 5 6 2 5 4 4 3 4 5 6 6 8 8 9 9 9 10 10 10
9 8 6 6 6 5 5 5 6 7 6 5 6 5 3 4 3 2 2 1 1 1 2 4 3 5 2 4 5 4 4 2 3 4 8 8 5 7 9 7 6 6 5 4 4 5 3 3 2 2 3 3 3 4 4 5 4 5 3 1 2 3 2 6 7 6 1 3 3 3 6 1 3 1 2 3 4 5 6 6 7 7 8 8 9 9 10 10
8 7 6 6 6 6 6 5 6 6 5 4 4 2 0 2 1 1 1 2 0 2 4 4 3 4 3 5 3 3 3 1 3 4 7 8 7 8 6 4 5 6 8 6 5 6 4 3 3 3 4 3 3 5 4 2 0 2 3 2 3 3 3 2 5 5 2 3 3 3 6 2 1 2 2 3 4 5 6 5 5 6 7 8 8 10 10 10
7 6 5 5 5 6 5 5 5 5 4 3 1 1 1 1 2 2 4 4 3 3 1 3 4 3 2 5 2 2 1 2 4 5 8 9 8 7 5 3 5 6 7 5 6 5 3 3 4 4 4 3 1 3 4 4 3 2 1 3 3 4 4 2 5 6 4 3 4 3 4 2 1 1 2 3 4 6 7 5 4 5 7 8 9 9 10 10
6 5 5 5 5 5 4 4 4 3 3 1 1 3 2 1 1 3 4 6 5 4 4 1 3 5 1 2 1 1 1 4 5 6 9 10 9 9 6 5 6 6 6 3 4 4 2 5 5 3 1 2 2 2 4 3 2 3 3 4 5 4 4 3 4 4 4 5 4 2 3 4 2 1 2 3 4 6 8 8 6 6 7 7 9 9 10 9
5 4 4 4 4 4 3 3 3 2 2 1 3 4 1 4 3 2 2 4 5 3 6 3 3 6 4 3 3 2 1 5 6 7 9 9 10 9 7 6 7 6 4 1 2 2 3 6 3 0 3 3 1 1 1 1 2 4 5 6 6 6 4 5 3 3 3 5 3 2 5 6 3 1 3 4 6 8 9 9 8 8 8 7 8 9 9 8
5 4 4 3 3 2 2 3 1 0 1 3 4 3 3 5 4 3 4 4 3 2 5 3 4 6 5 5 4 3 4 6 8 9 8 8 10 8 6 6 7 4 5 4 3 4 6 6 3 4 2 3 2 2 4 4 4 5 5 6 5 5 3 5 4 3 1 4 3 1 6 6 3 2 4 5 6 6 7 8 8 8 8 7 7 8 8 9
5 4 3 3 2 2 2 2 1 2 3 3 3 1 3 3 3 3 5 5 1 3 3 4 4 5 4 4 4 5 6 4 7 10 10 9 8 5 4 6 4 3 5 7 6 4 4 2 6 6 3 4 4 4 6 4 4 6 5 6 5 2 3 3 5 4 1 3 4 3 6 7 5 5 6 6 5 4 4 6 6 6 7 7 7 7 8 10
5 3 3 3 1 2 2 1 1 3 5 4 3 2 2 3 4 4 5 4 1 3 2 1 2 3 2 1 4 8 5 1 3 7 11 10 5 3 4 3 3 4 5 5 5 6 0 7 6 3 3 5 5 6 7 6 5 6 6 7 5 2 4 4 2 3 3 3 3 5 7 7 6 8 7 7 6 5 5 5 5 6 7 7 8 8 8 9
4 3 3 2 1 2 2 2 1 3 6 5 3 0 3 6 4 5 5 4 2 3 3 3 2 2 2 2 5 5 2 2 1 4 9 9 4 3 3 1 3 4 3 3 5 6 2 6 2 3 4 5 5 6 7 6 5 5 7 9 7 4 5 4 2 3 5 5 2 4 7 4 4 6 5 6 7 7 7 6 6 5 7 8 9 10 9 9
4 3 2 2 1 1 2 2 2 3 6 5 1 2 6 9 4 6 5 3 4 3 3 4 2 3 4 3 5 3 4 4 2 3 6 6 2 2 2 3 3 1 2 3 4 2 3 4 2 3 4 5 6 6 5 6 7 4 5 8 9 7 6 6 5 5 6 4 2 2 7 4 3 5 5 5 6 8 7 6 5 5 6 7 8 8 8 8
4 3 3 3 2 3 1 1 1 3 5 1 2 5 9 9 3 6 4 3 4 2 2 3 1 2 2 2 4 4 2 4 4 4 4 4 3 3 4 4 3 2 2 3 3 1 3 5 4 4 4 5 7 5 5 7 8 1 2 5 9 8 7 7 7 6 5 3 2 5 6 6 6 4 5 5 7 8 8 6 6 5 5 5 5 6 6 6
5 4 4 4 4 5 3 3 3 4 2 3 4 8 10 5 6 6 5 2 4 0 2 3 2 1 1 1 4 4 2 2 3 4 4 4 4 4 5 4 3 3 4 4 2 4 3 4 5 5 5 6 4 1 3 8 7 1 3 2 5 5 6 6 7 6 4 3 5 6 5 6 7 3 5 6 8 9 8 6 5 5 4 3 3 4 5 6
6 5 5 5 4 5 4 4 5 4 2 4 7 10 8 3 6 4 4 1 2 1 1 2 3 3 2 3 5 4 2 2 1 4 6 5 4 4 3 2 3 2 5 6 4 2 2 1 1 5 6 4 1 6 2 6 4 2 2 3 4 4 5 5 6 6 3 5 8 5 4 6 7 4 6 7 7 7 5 4 4 4 3 2 1 3 5 6
6 5 5 5 3 3 4 4 5 4 3 6 9 9 3 6 4 5 4 1 1 3 1 1 2 1 3 6 5 3 3 2 2 4 5 4 5 4 1 1 3 3 4 6 6 1 3 2 0 4 6 2 4 4 2 2 1 3 5 5 5 5 5 5 5 4 5 7 7 3 4 5 6 5 4 3 0 1 0 2 3 3 1 1 3 4 5 6
7 4 4 5 3 3 4 2 2 4 6 8 9 5 5 4 4 5 3 1 0 3 3 2 1 0 3 4 4 4 4 4 3 5 5 4 6 6 4 3 4 5 5 6 5 3 5 5 3 3 3 2 1 2 2 1 3 5 6 6 6 5 4 5 5 4 6 7 2 4 3 6 7 5 2 2 3 3 1 2 1 1 3 5 6 6 7 7
8 2 4 5 4 4 4 3 3 7 7 7 6 5 5 4 5 4 2 2 2 2 2 2 3 1 2 2 4 4 3 4 3 2 2 3 4 3 2 2 1 4 5 4 3 3 5 5 4 4 4 5 7 5 4 4 5 6 6 6 6 6 5 6 6 5 7 4 4 5 3 5 7 4 2 4 3 2 0 2 2 4 5 6 7 7 6 6
9 1 3 5 4 3 5 7 7 8 6 5 5 5 4 5 5 1 2 4 1 3 2 1 2 1 3 3 4 3 1 2 2 1 1 2 3 3 1 2 2 4 4 2 2 4 4 4 6 5 5 4 8 7 4 5 6 7 7 6 6 6 6 7 6 6 7 2 4 4 2 5 7 2 4 4 3 3 2 1 2 4 5 6 6 6 6 6
9 2 3 3 2 2 5 7 6 5 3 4 5 4 4 5 2 1 2 3 3 2 2 1 1 2 1 2 4 2 1 3 2 1 3 4 4 3 3 3 1 4 4 3 3 4 5 3 4 3 2 3 7 6 5 4 5 7 6 6 7 6 6 7 6 6 7 2 4 5 3 5 5 1 4 3 4 3 2 2 2 3 3 4 5 6 7 7
9 2 2 2 1 5 7 6 4 3 3 5 5 4 5 4 2 3 3 2 3 3 3 1 4 4 3 4 4 2 2 2 2 1 1 2 2 1 2 3 2 2 3 4 2 1 7 4 4 3 2 2 4 3 4 7 6 5 5 7 7 5 6 5 3 3 4 4 3 4 4 4 1 4 4 4 5 5 4 3 3 3 4 4 5 7 7 7
7 1 3 4 2 8 7 5 3 2 4 5 5 5 4 2 1 2 1 1 0 2 3 4 5 5 4 4 3 3 1 1 1 2 1 2 1 2 2 3 3 2 3 3 2 2 6 3 6 4 2 2 2 2 3 6 5 2 5 7 3 2 6 5 1 2 1 7 7 4 6 5 2 4 7 7 7 6 6 5 5 5 6 6 7 7 7 8
6 2 3 3 5 10 6 4 4 3 5 5 5 4 2 0 1 0 1 1 1 1 4 5 3 3 4 3 4 5 3 1 1 2 2 3 2 2 3 3 3 3 3 3 2 0 4 4 4 4 2 4 1 2 3 4 5 4 5 4 1 1 4 5 5 3 5 8 7 5 8 8 6 4 7 9 8 8 7 6 6 6 6 7 7 7 8 9
6 3 3 2 8 12 6 4 4 4 4 4 6 4 2 2 1 1 1 1 2 3 6 5 2 2 4 4 4 4 2 3 2 2 3 3 2 1 2 2 3 3 3 3 3 1 3 6 3 4 2 3 4 4 4 4 4 6 4 1 2 5 6 5 6 6 8 8 7 7 9 8 8 5 6 9 10 9 8 7 7 7 7 7 7 7 8 8
5 4 4 3 10 12 5 2 4 4 4 5 6 3 3 3 4 2 0 1 3 5 5 5 2 2 4 3 2 3 2 3 1 1 3 2 2 1 1 1 2 2 2 3 3 1 2 5 2 3 2 2 4 6 7 5 5 4 4 4 4 4 6 6 5 6 8 8 8 9 9 7 6 4 5 9 10 10 9 8 7 7 7 6 6 6 7 8
3 4 2 5 12 12 4 2 4 4 5 4 4 2 3 4 4 3 0 2 3 3 3 4 4 4 4 3 3 2 2 3 3 3 3 2 2 3 2 0 1 2 1 2 2 0 2 4 5 3 4 3 5 4 4 5 3 4 6 7 6 4 4 5 7 7 7 8 8 8 9 7 1 2 3 6 10 10 10 9 7 7 7 6 6 6 6 8
3 3 2 6 12 9 1 4 5 4 5 3 3 3 2 1 3 4 2 2 2 1 2 3 4 4 3 4 4 4 3 4 5 4 3 3 4 2 2 1 2 1 1 4 3 1 2 3 6 5 4 6 3 3 3 6 5 5 6 7 7 7 6 7 9 7 6 8 9 8 10 7 2 3 2 5 10 10 10 10 8 7 7 7 6 6 6 7
4 3 2 8 12 4 3 6 3 1 4 3 1 2 1 1 3 3 3 3 3 1 1 3 3 3 4 4 4 4 4 5 5 5 4 3 3 1 3 2 2 2 3 4 0 2 2 3 6 7 8 7 1 5 2 3 4 6 6 6 7 6 7 9 9 7 6 7 7 7 10 5 4 3 1 5 10 9 9 9 8 8 7 6 6 6 7 7
3 3 3 9 12 3 5 6 3 3 4 1 1 1 1 1 3 3 3 3 3 2 3 3 3 3 4 4 4 6 6 5 5 4 3 3 3 3 4 2 2 4 4 3 1 2 1 3 6 7 8 7 3 3 3 2 3 7 7 6 6 6 7 8 8 8 7 8 8 8 10 5 5 4 1 5 8 8 8 7 7 7 6 5 6 6 6 7
3 3 1 8 11 2 7 5 4 5 3 2 2 3 2 0 1 2 2 1 1 1 3 2 2 1 1 2 4 6 4 4 5 4 3 4 3 4 3 2 2 4 2 2 1 1 2 4 4 6 7 7 6 5 5 5 6 7 6 4 4 7 7 6 7 7 7 11 13 10 10 6 4 6 4 5 7 8 8 7 6 7 6 5 5 5 5 6
2 2 1 5 9 2 3 2 3 3 2 4 4 3 3 2 2 2 2 1 2 2 2 0 1 1 2 3 4 5 4 5 5 3 3 4 4 4 2 2 2 1 3 5 3 1 4 5 4 6 7 6 7 6 3 2 4 5 4 3 4 7 8 6 7 8 9 11 12 10 11 7 4 8 7 7 8 8 9 8 7 7 7 7 6 5 5 5
2 1 0 2 5 4 2 3 3 2 1 2 3 2 2 4 4 2 2 0 2 1 2 1 0 2 3 4 6 6 6 6 5 4 4 5 5 4 2 1 1 2 5 5 2 2 4 5 6 9 10 8 9 8 4 5 6 6 5 6 5 5 6 6 7 9 9 10 11 11 12 11 5 8 10 9 9 9 9 9 8 8 8 8 7 6 5 5
1 1 3 2 2 3 3 3 3 2 1 1 2 1 1 3 2 2 0 1 2 0 1 0 2 4 4 5 7 6 6 6 6 6 5 4 4 5 3 2 1 3 2 0 0 3 5 6 8 11 12 12 13 12 7 6 9 12 11 10 8 6 7 8 9 9 9 9 10 10 12 13 10 8 10 10 9 9 10 9 8 8 8 8 7 7 7 6
2 1 3 3 2 2 2 3 5 3 2 1 1 1 0 2 1 1 1 1 0 0 1 2 3 3 3 3 5 5 6 7 7 6 4 4 4 5 5 4 3 1 2 3 1 2 5 7 8 10 12 13 13 12 9 8 10 12 12 12 12 10 10 10 11 12 11 10 11 11 12 12 10 8 9 9 9 10 9 7 6 7 8 8 8 9 8 7
3 2 2 2 2 3 4 4 4 2 2 2 1 1 1 0 1 2 2 1 1 1 2 3 3 1 1 2 5 5 4 4 4 5 3 3 3 4 5 5 4 3 4 3 1 1 4 5 6 9 12 13 13 13 11 10 11 13 14 14 14 14 14 13 13 14 14 15 14 13 13 11 8 9 9 4 3 5 4 4 5 8 9 9 9 9 8 7
3 3 3 2 1 3 3 3 2 1 1 1 1 2 2 2 2 3 3 4 1 1 2 2 2 2 1 1 1 1 3 4 1 2 0 1 3 3 4 3 2 4 4 3 0 1 3 3 2 5 10 11 12 14 13 12 13 15 15 15 15 15 15 14 13 12 13 14 13 12 12 10 8 11 11 3 2 1 3 5 7 8 9 10 9 8 7 6
4 2 4 3 1 3 3 2 2 2 1 2 2 2 2 3 4 3 4 5 5 4 4 3 1 1 1 3 4 5 6 6 4 4 3 3 2 1 2 1 2 3 4 3 2 2 3 4 3 5 9 9 10 13 13 12 14 16 16 15 15 15 14 13 12 10 10 11 11 11 12 10 7 11 14 10 6 6 7 7 7 7 8 10 9 8 7 6
6 1 3 4 0 2 3 1 1 1 1 3 4 3 3 4 4 1 1 3 4 6 6 5 3 1 2 3 6 6 6 6 6 5 4 4 4 3 3 2 3 4 4 3 3 2 4 6 5 7 9 9 8 8 8 8 10 12 10 11 14 16 15 15 14 13 13 12 10 10 9 6 4 4 8 11 11 10 8 7 7 8 9 10 9 8 7 6
Wind_Direction
328 324 321 317 311 311 311 310 307 307 309 306 304 303 302 303 303 303 306 307 311 310 307 307 306 310 308 307 309 309 315 314 296 263 240 250 259 234 239 219 179 166 155 160 175 183 181 196 187 185 200 187 208 187 169 197 200 216 227 235 242 232 233 245 244 280 329 324 343 338 349 338 334 297 218 214 215 208 179 170 134 111 86 95 117 127 137 140
326 323 321 318 316 316 314 312 311 309 307 306 304 303 302 303 303 302 303 305 308 306 304 305 308 311 308 310 312 313 320 304 277 259 244 252 256 233 202 161 165 159 157 174 184 191 195 194 179 187 202 190 182 173 175 179 202 229 239 236 243 244 246 348 300 309 303 300 321 326 338 338 330 321 214 222 200 187 183 174 163 138 115 122 126 131 140 144
326 324 320 317 316 314 312 312 310 310 308 308 307 304 301 300 300 298 298 297 301 302 299 304 308 309 311 312 310 317 320 290 264 236 223 264 257 217 179 163 165 160 167 183 182 192 204 181 178 194 206 203 184 184 192 176 196 225 240 241 241 258 275 292 276 282 290 304 312 316 325 327 331 326 251 237 202 189 194 180 178 167 142 139 137 141 148 150
324 320 316 313 312 311 311 310 309 309 307 305 303 301 301 303 301 295 296 295 299 301 299 302 302 307 314 311 311 320 306 272 228 95 59 308 281 195 165 158 162 163 170 172 165 173 178 169 183 202 212 204 177 199 203 176 191 206 221 249 264 301 275 267 258 273 292 305 306 310 314 322 16 281 262 243 206 199 205 183 185 178 152 145 145 152 154 153
320 318 315 312 312 311 310 309 309 309 305 302 299 298 297 300 300 296 295 295 298 299 298 299 302 311 313 312 319 309 280 259 106 67 343 316 264 172 157 154 159 160 162 164 157 165 175 177 183 197 214 203 176 201 201 176 212 232 224 252 279 285 271 274 282 288 300 299 292 297 307 332 340 254 249 239 218 207 196 161 165 171 153 149 149 156 158 156
318 317 313 310 310 310 311 311 310 309 309 306 304 301 296 295 295 293 294 294 294 292 295 303 309 313 312 322 329 266 263 12 69 352 343 342 163 156 154 153 155 157 164 167 163 179 181 182 191 194 208 207 192 201 181 172 212 245 231 240 262 268 274 282 285 286 293 286 283 297 313 323 290 255 233 235 232 36 60 126 121 136 140 143 148 157 162 160
316 314 312 310 308 309 310 310 312 312 313 310 308 304 299 294 290 291 293 292 291 290 296 304 308 312 321 337 307 239 251 47 47 338 344 125 143 147 152 151 155 163 171 175 176 189 182 191 202 193 202 203 200 200 172 188 211 244 252 247 259 268 272 272 278 281 279 278 284 294 295 284 274 269 215 221 168 47 75 131 121 121 127 136 149 162 164 161
315 313 312 309 308 309 308 310 310 311 311 311 313 309 303 295 289 289 288 291 291 287 293 297 302 318 331 332 267 229 178 40 17 333 152 145 144 146 149 151 163 172 182 186 183 193 187 192 186 190 213 169 178 194 180 213 214 233 256 264 262 265 263 267 279 280 275 275 279 273 265 265 270 287 222 199 124 75 116 136 129 125 130 143 159 166 162 159
315 313 311 308 308 310 311 312 310 309 308 308 311 310 306 298 290 285 283 287 286 281 280 286 300 330 336 294 267 235 76 19 358 27 150 152 149 150 151 158 172 180 187 185 187 202 196 189 151 212 238 113 167 194 183 228 213 211 247 263 264 263 266 281 288 278 272 264 255 244 237 226 219 221 205 158 121 105 121 138 138 137 143 154 165 166 160 161
314 311 307 305 307 311 316 317 312 309 307 307 306 305 307 303 294 286 283 282 278 276 269 280 308 342 316 265 264 217 76 18 38 102 152 160 152 156 165 167 174 185 184 180 194 203 197 139 108 242 261 130 187 201 193 239 295 196 254 272 271 271 279 289 283 268 251 222 223 232 209 135 182 215 184 124 131 141 137 143 148 149 152 160 164 164 166 168
313 306 303 305 307 313 317 315 311 308 307 308 303 301 303 302 300 291 283 277 267 268 271 284 303 344 299 265 275 89 94 36 91 111 149 166 162 165 175 171 182 196 182 183 192 188 155 73 65 251 213 150 189 195 199 250 318 277 273 278 261 253 257 259 252 237 226 195 204 225 177 138 184 208 83 106 147 167 155 153 159 158 154 160 162 163 171 171
310 303 302 304 308 314 312 310 308 308 310 306 302 304 301 297 300 298 290 279 265 261 272 293 316 354 296 260 310 77 113 89 138 126 139 166 175 176 180 180 198 209 189 191 183 183 235 352 292 274 22 186 201 187 182 268 285 269 273 277 254 208 179 194 180 184 204 162 192 231 190 166 169 108 74 108 157 177 178 167 165 164 155 158 160 163 170 169
307 299 298 302 307 308 305 305 305 308 309 306 308 307 303 299 293 293 289 273 269 271 278 303 340 330 279 248 77 91 145 133 149 143 144 164 175 180 188 192 198 207 205 191 139 183 235 258 290 305 347 262 217 101 262 249 261 257 244 263 255 195 157 101 134 165 156 112 233 243 216 172 140 92 90 128 165 182 185 177 171 167 159 160 163 167 167 165
302 295 297 302 302 299 297 298 301 305 305 307 309 307 305 299 289 289 284 270 268 275 281 309 341 283 266 99 98 162 153 129 161 163 165 167 160 158 175 182 176 186 201 168 73 304 242 246 273 276 269 263 302 325 254 220 227 240 227 233 239 206 130 93 115 169 145 118 233 245 240 172 124 93 101 134 173 193 192 181 177 171 166 167 167 171 166 163
298 291 293 295 294 292 288 290 294 298 303 308 308 310 305 290 286 275 266 271 266 271 330 308 296 267 248 120 119 204 135 160 173 178 182 176 165 156 165 174 173 182 194 210 315 342 223 227 252 256 210 231 257 252 226 197 198 222 227 196 207 213 119 100 77 67 116 115 197 246 246 170 117 86 99 142 185 203 206 186 181 178 172 172 169 173 170 162
298 288 286 287 285 282 278 283 288 296 302 307 310 311 299 281 278 258 246 233 245 226 346 274 227 257 268 115 128 173 167 170 158 171 184 187 188 154 152 162 166 184 194 207 213 189 206 226 254 296 263 212 228 241 217 196 187 205 242 193 185 218 148 127 99 66 82 127 173 242 260 184 113 89 98 148 197 205 215 190 183 185 176 178 177 177 175 163
297 287 283 279 274 271 273 276 282 292 297 308 315 310 292 274 252 237 227 198 254 209 243 278 251 259 284 113 154 165 144 134 109 145 174 186 187 148 149 158 156 166 173 165 181 191 202 223 227 239 241 230 241 251 228 212 186 186 228 189 169 243 206 149 128 94 74 212 167 216 263 294 99 133 125 168 209 216 220 197 185 188 183 185 185 183 180 171
298 289 280 271 265 261 266 272 278 288 298 312 311 293 280 271 203 188 210 161 135 215 232 262 255 247 161 148 174 122 105 137 137 145 162 170 172 166 168 167 153 157 165 159 171 193 195 207 234 229 211 210 225 239 238 241 193 188 206 202 172 200 237 175 119 78 30 219 171 197 236 238 110 206 190 187 210 225 222 206 197 194 191 193 192 193 188 178
301 288 277 268 260 257 261 269 277 290 305 316 306 178 160 172 169 208 212 197 213 242 224 179 218 274 123 145 123 52 49 170 163 163 160 163 171 181 188 185 179 180 190 185 170 187 214 209 224 235 213 194 211 288 316 360 360 309 256 261 221 192 208 140 87 57 17 252 198 203 242 246 223 168 174 199 208 231 226 208 212 205 200 201 199 200 194 184
308 287 275 264 256 259 262 268 284 304 305 312 190 207 215 247 212 193 204 217 233 292 319 245 242 281 288 117 76 350 200 175 179 167 163 168 171 176 182 191 198 204 221 216 156 160 252 236 223 239 252 60 39 344 332 350 340 286 246 239 238 228 204 129 98 73 17 293 203 149 275 251 262 79 136 195 204 225 225 214 218 216 212 210 207 206 195 186
316 291 274 264 261 263 256 266 295 313 318 135 204 232 344 360 345 1 330 244 216 270 287 284 290 277 282 311 304 313 220 178 167 152 159 172 181 184 174 188 212 207 194 176 134 142 236 243 219 57 27 46 64 196 222 253 252 241 236 227 220 229 205 116 99 95 32 296 205 146 262 242 235 161 141 177 207 220 223 219 221 223 224 223 219 215 201 188
321 297 279 269 269 255 245 269 281 265 102 135 214 246 43 27 351 327 307 279 209 227 263 251 265 268 266 266 260 268 243 183 156 153 159 176 196 201 165 187 223 194 144 174 198 186 220 236 134 99 82 104 142 192 203 216 228 228 230 232 224 220 196 125 122 133 70 287 253 182 272 257 237 226 175 186 210 214 218 225 228 229 232 232 228 223 210 199
326 307 288 281 269 241 246 254 211 191 162 173 235 350 53 12 328 260 250 282 255 167 219 222 237 242 220 222 195 204 224 188 164 162 165 188 201 213 196 194 215 170 168 201 223 232 227 160 107 111 144 165 167 181 199 206 213 223 223 228 222 180 223 198 144 149 137 290 293 304 280 264 235 222 206 196 205 202 207 227 238 241 243 242 242 237 224 212
334 317 297 292 253 247 237 181 196 201 183 208 252 33 19 325 311 245 235 278 264 142 188 213 253 241 192 115 171 199 215 181 196 154 162 197 191 177 220 208 202 203 193 198 234 259 263 86 99 139 185 209 196 178 202 222 208 208 225 241 241 181 241 263 136 161 201 202 267 281 264 255 227 223 213 182 189 208 207 216 229 235 238 242 250 247 238 230
330 314 302 295 276 261 211 182 209 201 194 212 228 332 329 327 308 235 239 262 169 132 162 172 217 210 126 118 171 210 241 175 233 121 161 207 206 165 193 199 234 218 161 172 232 252 92 86 131 198 201 219 216 198 206 234 237 204 209 232 252 247 235 249 212 221 241 210 188 285 270 247 181 213 213 170 187 204 196 204 217 221 222 227 238 241 238 235
313 306 287 274 288 160 167 182 157 194 221 213 194 330 326 329 298 208 240 254 144 118 166 175 186 153 142 168 164 212 237 171 77 90 169 205 228 239 208 169 227 284 116 189 241 267 94 113 190 222 219 212 223 226 197 221 251 227 189 210 231 242 227 228 226 231 259 250 136 271 275 265 195 203 189 176 201 194 175 188 208 212 214 218 230 237 238 234
302 287 263 256 241 187 186 351 145 226 242 167 31 329 331 325 238 181 235 225 129 85 185 153 116 117 121 160 177 220 227 121 111 136 175 203 189 238 238 181 189 148 141 230 231 150 124 149 180 218 235 222 228 227 179 214 248 274 86 199 213 220 215 221 233 235 267 296 199 221 258 273 255 218 162 179 213 198 173 172 193 202 209 218 236 245 252 255
304 270 256 246 236 231 251 299 278 265 304 26 349 325 330 310 183 186 253 200 103 355 194 113 81 127 115 165 209 247 341 92 173 133 138 200 194 230 237 220 233 156 162 248 248 124 154 192 196 219 240 236 243 50 144 220 243 27 42 223 207 212 215 224 242 250 266 283 251 221 220 258 259 213 161 186 219 213 183 163 182 188 190 212 248 273 286 289
312 266 253 245 249 247 246 264 274 285 348 350 329 330 325 218 184 228 258 190 101 184 152 98 140 162 188 188 198 235 252 250 292 98 135 184 205 252 262 254 273 179 169 248 288 97 152 224 235 241 250 251 15 46 52 238 243 89 142 186 177 193 209 225 249 260 242 249 265 241 197 256 269 225 191 196 220 226 185 157 175 174 179 204 302 311 305 302
322 262 247 240 246 247 245 242 248 271 309 319 328 332 284 194 209 245 216 191 116 143 135 181 175 221 229 198 179 174 193 171 74 134 159 166 184 210 301 7 255 233 192 232 264 239 136 118 347 248 262 315 54 64 34 280 195 151 184 195 192 199 210 228 244 264 254 246 259 224 190 255 274 247 220 195 119 10 144 190 179 168 204 344 353 330 323 320
338 255 234 231 229 227 241 214 206 270 295 317 330 305 224 205 246 242 189 167 173 149 161 153 107 274 210 192 156 138 158 128 115 191 182 161 180 186 191 194 210 227 220 220 228 202 180 189 180 199 233 254 203 174 139 168 195 198 213 220 222 218 217 234 228 223 251 253 205 124 177 239 256 253 215 111 81 63 321 264 251 307 328 353 348 339 340 330
352 247 219 235 246 245 266 308 302 286 292 316 318 256 228 230 234 231 152 176 203 156 151 100 63 100 158 135 104 116 152 112 104 219 197 190 192 169 208 243 233 230 232 222 200 205 216 196 144 147 184 213 232 216 165 178 205 219 229 229 236 237 225 239 242 232 246 247 116 121 174 231 251 257 125 121 119 105 47 315 331 339 345 351 343 340 342 332
358 284 228 247 258 264 289 301 295 291 302 309 280 238 243 247 230 203 149 183 149 58 87 55 45 89 198 176 112 95 177 94 85 190 159 235 208 128 89 7 329 267 263 275 251 254 235 161 148 175 167 190 233 232 205 198 202 217 229 231 243 250 244 245 247 251 253 225 116 132 184 239 249 242 91 102 103 94 98 43 3 360 356 349 343 346 351 351
356 309 244 248 248 298 313 308 305 312 304 276 252 222 234 245 225 131 195 160 83 88 108 52 148 138 160 138 88 41 210 97 60 210 184 213 210 160 135 99 4 265 260 258 261 276 264 201 158 185 130 168 225 252 288 284 225 221 235 243 249 254 258 262 262 263 264 235 130 143 189 247 247 120 82 95 112 114 119 96 63 32 18 5 4 8 7 7
349 315 208 154 73 341 329 315 325 331 272 257 245 222 230 239 203 195 202 111 110 166 143 155 219 194 142 115 94 31 336 75 82 233 222 220 215 167 136 93 60 277 252 245 221 251 264 258 97 81 68 193 233 269 295 280 247 218 232 245 252 260 258 267 296 315 305 284 220 186 220 255 202 124 126 136 138 137 129 114 103 76 57 42 34 29 20 18
350 249 167 137 35 345 330 302 320 317 265 257 244 232 236 267 276 200 154 64 193 192 173 186 217 224 188 159 144 119 33 355 135 216 163 101 107 98 105 74 42 312 274 265 228 197 254 248 104 113 133 138 294 302 231 262 266 191 226 243 252 299 271 264 253 98 292 269 258 234 243 247 209 172 155 153 154 147 143 132 114 90 77 67 51 37 28 29
339 235 178 139 3 350 330 285 298 278 256 255 251 253 262 302 303 278 71 359 271 264 241 218 207 237 217 187 169 141 146 201 191 233 196 143 125 95 120 99 41 338 330 306 270 250 279 263 155 172 176 113 75 279 213 243 273 247 240 242 161 250 256 253 258 237 230 255 257 230 237 248 251 217 155 163 171 157 151 139 123 110 95 79 62 46 36 36
321 249 175 96 359 352 336 271 266 253 252 252 243 252 257 207 152 120 66 321 242 223 239 238 208 236 236 221 184 140 169 222 179 234 233 185 162 92 154 136 80 24 356 300 264 89 284 266 189 170 214 143 153 234 220 187 231 267 285 272 229 251 241 227 248 257 251 258 262 243 237 247 256 238 172 182 183 164 154 145 134 120 99 81 64 51 41 39
297 240 186 64 360 350 342 251 238 243 247 248 238 224 218 193 138 119 315 280 236 223 234 240 220 215 228 239 215 152 205 258 243 243 243 206 159 131 202 216 104 72 19 299 290 70 241 262 235 145 143 174 204 229 238 207 188 229 257 232 233 268 270 254 251 260 263 264 269 265 255 250 261 260 212 199 181 164 157 145 134 115 95 77 63 51 42 43
286 258 185 45 357 346 354 204 221 240 238 248 266 223 179 181 155 139 36 298 248 238 253 235 211 221 217 216 245 217 206 255 264 254 240 193 164 150 131 288 289 60 46 267 267 257 220 244 257 199 147 221 242 225 269 284 231 222 237 233 229 240 263 267 256 252 261 265 267 271 267 263 329 7 257 195 164 159 157 144 132 116 99 81 67 56 49 52
270 260 155 26 351 345 349 213 223 247 241 243 269 221 166 172 184 159 147 271 267 284 303 260 228 234 222 211 230 219 213 243 247 249 238 200 201 196 108 46 307 333 271 239 215 232 254 240 255 255 225 241 248 79 14 339 325 287 267 254 254 251 250 259 255 244 246 262 268 269 270 275 49 34 293 163 150 154 152 143 135 121 107 91 79 69 63 62
251 260 69 11 347 341 218 232 216 235 249 248 259 202 112 18 226 180 163 221 243 224 243 252 242 241 234 237 243 228 237 253 239 239 245 215 203 174 84 46 290 275 272 271 238 67 330 268 257 259 256 262 343 79 57 322 305 290 280 273 276 268 254 256 260 262 255 261 273 272 269 277 86 66 310 148 148 150 144 141 138 124 110 102 97 89 80 74
272 303 42 5 346 313 225 239 207 212 235 227 49 135 104 246 224 204 198 219 234 224 217 219 223 239 235 238 249 237 237 248 239 240 249 215 154 84 59 26 254 236 250 267 154 122 200 255 255 253 254 258 237 136 152 186 248 262 254 253 268 272 270 271 277 288 277 263 267 264 260 255 108 100 107 137 142 144 140 139 137 130 120 114 112 104 96 89
320 303 20 1 353 289 224 245 233 227 205 147 188 180 146 135 282 250 229 230 293 249 235 219 199 241 224 207 244 240 226 230 229 225 242 222 146 87 52 23 254 235 256 335 22 145 226 247 249 258 257 245 225 204 195 192 214 246 252 246 267 275 276 275 272 275 264 258 262 261 262 261 126 127 160 156 153 153 148 145 142 140 140 135 126 117 109 103
299 251 193 11 14 33 220 303 297 246 167 159 197 181 165 165 71 3 309 358 18 317 274 240 118 254 220 193 228 228 217 237 238 209 212 202 145 114 72 31 303 246 63 28 358 224 251 263 247 256 259 249 245 243 239 241 231 230 236 236 250 261 261 263 264 257 250 256 258 255 265 269 145 146 174 175 173 173 160 156 160 156 155 154 147 140 129 115
295 286 22 33 37 52 83 45 349 284 148 176 194 166 219 201 123 57 317 28 60 347 294 338 169 239 218 207 225 222 209 221 236 226 212 198 162 131 103 64 39 59 68 44 358 235 251 263 251 254 260 264 272 280 331 341 289 263 256 244 230 231 243 254 261 257 260 265 256 250 263 267 216 177 189 185 186 190 175 169 174 171 166 162 157 152 143 131
313 349 7 351 31 63 92 68 22 9 59 284 244 130 237 226 157 128 182 61 54 48 276 282 223 234 224 215 226 226 210 207 217 226 219 207 168 127 131 196 109 47 28 60 263 249 250 253 249 252 257 265 275 283 301 307 279 273 273 263 248 234 232 241 250 261 274 273 259 260 267 262 250 229 218 204 191 190 187 188 190 180 171 165 159 156 151 144
16 40 27 334 314 33 45 27 15 21 53 355 294 73 243 234 209 146 99 76 79 238 268 217 197 231 239 230 231 222 212 210 211 210 201 198 188 159 164 187 156 84 256 209 169 267 260 258 255 254 259 264 268 271 272 267 264 265 266 264 260 254 247 246 249 257 264 261 262 280 281 262 253 256 246 226 211 209 207 207 200 182 174 171 168 168 163 153
29 54 47 323 321 33 25 355 342 350 39 30 29 49 349 264 105 67 38 353 187 120 300 236 183 155 182 228 248 230 210 219 210 196 190 185 195 202 203 195 173 184 216 204 123 341 272 270 268 264 267 268 266 264 259 255 257 259 257 256 257 257 255 254 253 254 257 259 264 278 281 267 260 272 272 250 206 226 219 187 186 186 182 179 179 179 168 153
16 20 2 309 8 44 23 355 318 265 71 17 27 73 52 42 64 75 48 6 346 70 341 257 155 78 60 145 243 177 58 13 12 96 57 215 192 219 240 242 200 188 203 231 167 154 251 277 306 277 271 269 267 263 256 251 256 258 256 255 256 257 254 253 255 254 254 260 264 265 268 265 260 263 264 255 105 178 195 185 194 192 186 185 186 181 165 149
357 351 324 301 15 18 352 17 342 279 84 51 28 50 54 51 48 66 73 40 21 35 17 348 46 74 142 107 77 61 42 8 354 16 346 296 291 299 276 305 297 230 225 254 241 189 238 261 266 264 266 268 265 260 257 262 267 263 257 253 251 251 251 251 252 246 241 250 257 256 259 264 261 253 250 247 243 240 235 224 210 191 185 190 189 177 164 151
350 320 306 293 321 19 343 12 359 290 71 45 25 28 31 42 49 49 130 74 49 38 23 0 350 281 208 114 63 27 2 336 323 327 316 297 303 300 282 286 291 277 269 270 259 239 254 265 265 261 266 272 271 267 273 281 275 267 258 245 240 244 250 253 252 249 244 244 250 255 261 282 310 274 253 256 259 257 254 243 218 191 185 189 183 170 159 144